Regional Weather Roundup
Issued by NWS Spokane, WA

Home | Current Version | Previous Version | Text Only | Print | Product List | Glossary On
Versions: 1 2 3 4 5 6 7 8 9 10 11 12 13 14 15 16 17 18 19 20 21 22 23 24 25 26 27 28 29 30 31 32 33 34 35 36 37 38 39 40 41 42 43 44 45 46 47 48 49 50
000
NZUS01 KOTX 270510
RWROTX
EASTERN WASHINGTON/NORTHERN IDAHO ROUNDUP
NATIONAL WEATHER SERVICE, SPOKANE WA
1000 PM PDT TUE JUL 26 2016

Note: "fair" indicated few or no clouds below 12,000 feet with no
significant weather and/or obstructions to visibility.

...NORTHEAST WASHINGTON AND NORTHERN IDAHO PANHANDLE...

CITY           SKY/WX    TMP DP  RH WIND       PRES   REMARKS
SPOKANE INTL   MOCLDY    72  55  55 NE10      30.03R
SPOKANE DOWNTO MOCLDY    73  58  59 CALM      30.02R
COEUR D ALENE  CLOUDY    70  57  64 NE14      30.03R THUNDER
DEER PARK      CLOUDY    64  59  83 N8        30.06R
SANDPOINT      MOCLDY    66  55  68 N3        30.06R
BONNERS FERRY    N/A     61  55  82 CALM      30.07S

...SOUTHEAST WASHINGTON AND SOUTHERN IDAHO PANHANDLE...

CITY           SKY/WX    TMP DP  RH WIND       PRES   REMARKS
WALLA WALLA    CLEAR     77  49  37 E7        29.94R
PULLMAN/MOSCOW MOCLDY    72  52  49 CALM      30.02R
LEWISTON       PTCLDY    86  49  27 SW5       29.93R
LOWELL           N/A     69  58  67 NW3       29.97R

...COLUMBIA BASIN...

CITY           SKY/WX    TMP DP  RH WIND       PRES   REMARKS
EPHRATA        PTCLDY    80  57  45 N16       29.96R
MOSES LAKE     PTCLDY    82  52  35 NE17      29.94R
TRI CITIES     CLEAR     85  50  29 NW10      29.89R
HERMISTON      CLEAR     82  55  39 SW12      29.90R
PENDLETON      CLEAR     77  42  28 NW8       29.95R

...EAST SLOPES CASCADES...

CITY           SKY/WX    TMP DP  RH WIND       PRES   REMARKS
THE DALLES     CLEAR     77  57  50 VRB5      29.95R
YAKIMA         CLEAR     81  50  33 NW9G23    29.98R
ELLENSBURG     CLEAR     72  56  57 NW18G26   30.02R
STAMPEDE PASS  CLOUDY    56  53  90 SW7       30.20R
WENATCHEE      CLEAR     81  55  40 NW13      30.00R
OMAK           PTCLDY    71  55  56 NW10      30.01R

...SOUTHERN BRITISH COLUMBIA...

CITY           SKY/WX    TMP DP  RH WIND       PRES   REMARKS
PENTICTON      MOCLDY    66  61  82 N5        30.04R
CRANBROOK      MOCLDY    68  54  60 S3        30.08S

...WESTERN MONTANA...

CITY           SKY/WX    TMP DP  RH WIND       PRES   REMARKS
MISSOULA       CLEAR     71  53  52 NW6       30.06R

...NEIGHBORING CITIES...

CITY           SKY/WX    TMP DP  RH WIND       PRES   REMARKS
SEATTLE        CLEAR     69  61  75 NW5       30.11R
CALGARY        MOCLDY    64  55  72 VRB2      30.13R



USA.gov is the U.S. government's official web portal to all federal, state and local government web resources and services.